VE2JOS Weather Reports


Display with metric or nautical units.
time (UTC)temp
F
wind
direction
speed
MPH
gust
MPH
rain 1hr
in
rain 24hr
in
rain mn
in
humidity
%
barometer
mb
20260504081521 43 257 0.0 1.0 0.00 0.00 0.00 71
20260504080521 43 259 0.0 1.0 0.00 0.00 0.00 70
20260504050520 42 260 0.0 0.0 0.00 0.00 0.00 70
20260504045520 42 0.0 0.0 0.00 0.00 0.00 69
20260504044520 43 0.0 0.0 0.00 0.00 0.00 68
20260504043520 43 259 0.0 1.0 0.00 0.00 0.00 67
20260504042541 42 0.0 0.0 0.00 0.00 0.00 68
20260504041520 43 0.0 0.0 0.00 0.00 0.00 66
20260504040520 43 0.0 0.0 0.00 0.00 0.00 65
20260504035540 44 0.0 0.0 0.00 0.00 0.00 62
20260504034520 45 0.0 0.0 0.00 0.00 0.00 61
20260504033520 45 0.0 0.0 0.00 0.00 0.00 60
20260504032520 45 0.0 0.0 0.00 0.00 0.00 61
20260504031520 46 259 0.0 1.0 0.00 0.00 0.00 59
20260504030520 46 260 0.0 1.0 0.00 0.00 0.00 59
20260504025520 46 0.0 0.0 0.00 0.00 0.00 60
20260504024520 46 259 0.0 1.0 0.00 0.00 0.00 60
20260504023520 47 0.0 0.0 0.00 0.00 0.00 61
20260504022521 47 260 0.0 1.0 0.00 0.00 0.00 60
20260504021520 47 0.0 0.0 0.00 0.00 0.00 59
20260504020520 47 0.0 0.0 0.00 0.00 0.00 57
20260504015520 48 0.0 0.0 0.00 0.00 0.00 56
20260504014520 49 247 0.0 2.0 0.00 0.00 0.00 52
20260504013520 49 231 1.0 2.0 0.00 0.00 0.00 51
20260504012520 49 0.0 0.0 0.00 0.00 0.00 52
20260504011540 50 250 0.0 1.0 0.00 0.00 0.00 49
20260504010520 50 0.0 0.0 0.00 0.00 0.00 48
20260504005540 51 241 0.0 1.0 0.00 0.00 0.00 47
20260504004520 51 241 0.0 2.0 0.00 0.00 0.00 46
20260504003520 51 260 0.0 2.0 0.00 0.00 0.00 46
20260504002520 51 245 0.0 1.0 0.00 0.00 0.00 46
20260504001540 51 258 0.0 1.0 0.00 0.00 0.00 45
20260504000520 52 0.0 0.0 0.00 0.00 0.00 45
20260503235540 52 235 1.0 2.0 0.00 0.00 0.00 44
20260503234520 52 253 0.0 1.0 0.00 0.00 0.00 43
20260503233520 53 208 1.0 3.0 0.00 0.00 0.00 42
20260503232520 53 247 0.0 2.0 0.00 0.00 0.00 43
20260503231540 53 0.0 0.0 0.00 0.00 0.00 42
20260503230520 54 258 0.0 1.0 0.00 0.02 0.00 42
20260503225520 54 261 0.0 1.0 0.00 0.02 0.00 41
20260503224520 55 253 0.0 2.0 0.00 0.02 0.00 40
20260503223520 55 239 1.0 2.0 0.00 0.02 0.00 38
20260503222520 55 245 0.0 2.0 0.00 0.02 0.00 39
20260503221520 55 229 1.0 2.0 0.00 0.02 0.00 38
20260503220521 55 252 0.0 2.0 0.00 0.03 0.00 38
20260503215520 55 228 0.0 3.0 0.00 0.03 0.00 38
20260503214520 55 255 1.0 2.0 0.00 0.03 0.00 38
20260503213520 55 241 0.0 1.0 0.00 0.03 0.00 39
20260503212520 55 0.0 0.0 0.00 0.03 0.00 38
20260503211520 55 259 0.0 2.0 0.00 0.03 0.00 40
20260503210520 55 259 0.0 2.0 0.00 0.03 0.00 42
20260503205540 55 298 1.0 3.0 0.00 0.03 0.00 42
20260503204520 55 272 2.0 4.0 0.00 0.03 0.00 41
20260503203540 56 272 1.0 2.0 0.00 0.04 0.00 38
20260503202520 56 239 1.0 3.0 0.00 0.05 0.00 38
20260503201540 56 248 1.0 3.0 0.00 0.05 0.00 39
20260503200522 57 258 1.0 4.0 0.00 0.05 0.00 39
20260503195520 56 278 2.0 6.0 0.00 0.05 0.00 39
20260503194520 57 268 1.0 4.0 0.00 0.05 0.00 41
20260503193519 55 268 1.0 2.0 0.00 0.05 0.00 43
20260503192520 54 271 0.0 1.0 0.00 0.05 0.00 45
20260503191519 53 269 1.0 2.0 0.00 0.05 0.00 44
20260503190520 53 275 2.0 5.0 0.00 0.05 0.00 44
20260503185520 55 261 1.0 3.0 0.00 0.05 0.00 44
20260503184520 56 271 1.0 4.0 0.00 0.05 0.00 43
20260503183521 55 282 2.0 5.0 0.00 0.05 0.00 45
20260503182519 53 263 1.0 3.0 0.00 0.05 0.00 45
20260503181520 52 264 2.0 4.0 0.00 0.05 0.00 45
20260503180519 55 263 2.0 3.0 0.00 0.05 0.00 44
20260503175540 55 278 2.0 3.0 0.00 0.05 0.00 45
20260503174520 51 265 2.0 5.0 0.00 0.05 0.00 46
20260503173520 52 269 2.0 4.0 0.00 0.05 0.00 47
20260503172520 54 268 2.0 4.0 0.00 0.05 0.00 46
20260503171540 52 269 2.0 4.0 0.00 0.05 0.00 47
20260503170520 51 270 2.0 5.0 0.00 0.05 0.00 48
20260503150520 52 262 1.0 3.0 0.00 0.05 0.00 51
20260503130520 46 270 1.0 2.0 0.00 0.05 0.00 65
20260503110520 40 0.0 0.0 0.00 0.05 0.00 82